Wetbulb
54.51 54.55 54.61 54.58 54.96 55.18 55.17 55.47 55.52 55.57 55.63 55.48 55.28 55.14 54.47 54.64 54.68 55.38 50.85 53.81 55.77 55.42 58.70 54.80 55.02 55.74 53.64 52.83 55.36 55.52 49.03 46.74 48.15 48.35 49.88 51.80 51.10 53.54 54.42 52.52 53.33 54.84 55.22 57.73 65.13
54.14 54.29 54.47 54.48 54.78 55.08 55.35 55.53 55.65 55.73 55.99 55.96 55.45 55.03 55.03 53.81 54.12 52.69 56.64 55.11 56.89 58.91 56.54 52.24 51.90 53.54 50.44 49.23 52.11 51.04 47.44 48.44 52.32 52.49 50.77 51.84 51.63 52.07 51.44 51.67 51.99 53.33 56.29 59.35 68.14
53.93 54.16 54.11 54.31 54.78 54.87 55.32 55.59 55.96 56.16 56.14 56.02 55.30 55.06 54.75 54.39 50.86 52.42 59.23 58.52 58.09 59.38 56.15 55.42 53.40 52.61 49.11 49.63 48.80 49.44 46.24 49.76 51.61 53.52 53.67 52.22 51.56 52.69 51.06 50.54 53.30 53.12 55.14 59.77 66.13
53.46 53.80 53.85 54.13 54.33 54.74 55.20 55.54 55.99 56.02 55.91 55.88 55.44 55.09 54.33 53.60 44.00 52.27 61.24 58.48 56.34 56.64 53.50 53.34 51.56 49.64 48.50 47.42 49.79 45.50 48.67 49.49 50.48 51.77 52.53 51.51 53.40 51.82 52.51 52.65 55.05 55.58 56.37 56.47 63.14
53.09 53.29 53.32 53.57 53.75 54.35 54.72 55.46 55.55 55.36 55.52 55.66 55.50 54.33 54.10 50.65 49.10 54.76 58.12 58.43 55.06 54.13 52.52 51.47 49.02 48.61 45.91 47.81 49.42 47.54 48.09 49.05 49.48 49.72 49.52 51.87 51.06 51.24 52.73 55.02 56.07 56.25 56.47 56.54 57.91
52.98 52.59 52.65 52.98 53.21 53.70 54.26 54.88 54.79 54.67 55.43 55.60 54.73 53.49 53.29 46.66 54.40 55.26 54.88 54.76 54.32 53.33 52.40 51.96 49.86 50.60 48.05 47.35 46.56 48.23 48.03 48.98 50.10 49.77 50.04 48.40 48.75 49.48 50.88 54.82 54.94 55.78 56.09 56.99 57.46
53.18 52.29 52.23 52.50 52.75 53.27 54.17 54.49 54.22 54.65 55.69 56.04 54.51 54.47 51.66 49.05 55.01 56.47 56.13 55.01 54.52 53.61 51.00 53.02 52.93 50.13 49.72 46.93 49.81 48.18 44.64 46.71 47.42 48.65 48.56 50.13 46.76 47.15 50.77 52.28 52.41 53.92 55.97 56.94 57.54
53.29 52.82 51.91 52.20 52.50 53.04 53.47 53.96 53.87 55.57 56.29 55.64 54.89 54.27 48.73 54.82 56.34 55.28 55.97 54.69 55.01 54.64 53.17 53.59 53.45 51.22 50.22 51.05 48.78 45.64 45.99 42.04 47.04 47.74 48.78 48.79 42.85 49.61 52.09 51.39 50.53 51.73 53.15 55.16 56.71
52.82 52.43 51.89 52.06 52.24 52.82 53.03 53.05 53.86 56.15 56.02 55.47 54.10 52.26 47.36 55.89 51.30 53.97 54.96 51.96 52.90 53.49 53.43 52.65 52.18 49.49 49.27 45.61 43.87 45.12 40.58 42.27 43.83 48.30 48.06 48.08 44.83 49.55 52.17 51.99 51.49 52.28 52.98 53.79 55.43
52.51 52.18 52.05 51.74 51.89 52.22 52.50 52.99 55.62 55.58 55.92 55.41 53.82 48.54 50.24 47.07 51.40 52.60 54.33 53.54 50.69 51.00 50.27 48.95 48.31 45.38 45.57 43.18 36.62 39.40 40.16 41.74 41.31 45.70 46.80 45.92 46.30 48.70 51.28 51.38 51.88 52.99 54.65 55.09 55.36
51.97 51.91 51.60 51.98 52.04 52.33 53.33 54.07 52.03 50.45 50.62 46.56 46.97 47.46 48.51 51.17 52.83 50.52 52.50 51.67 50.16 48.59 43.81 47.03 42.85 40.28 42.57 44.34 44.13 42.67 41.30 40.10 42.93 45.52 44.77 44.57 45.79 48.01 50.79 51.26 51.86 52.65 53.74 55.44 57.08
51.26 51.43 51.72 51.81 52.10 52.11 53.79 49.76 48.50 49.70 43.96 49.28 48.88 48.64 50.44 50.75 46.15 49.12 52.50 47.21 46.12 42.20 44.94 43.35 39.91 44.21 45.11 44.77 43.36 42.65 40.39 40.05 42.72 44.45 43.55 43.99 43.94 47.73 49.53 50.35 51.76 52.57 53.63 54.87 56.80
51.14 51.04 51.56 51.96 52.24 53.50 52.16 49.77 52.75 52.23 44.76 45.36 48.19 47.49 48.44 49.69 45.68 46.65 49.79 47.90 44.27 42.05 42.74 40.63 42.82 45.59 43.74 43.24 41.72 42.17 40.31 39.86 39.48 42.43 43.53 41.98 41.33 43.87 47.91 50.25 51.40 52.42 53.87 55.26 56.33
50.98 50.81 51.28 51.18 51.58 53.64 51.12 53.74 54.68 53.02 41.38 41.77 44.39 46.50 48.31 48.56 44.19 49.55 50.32 47.36 44.59 41.54 42.75 42.38 45.72 43.03 42.51 41.72 43.09 38.80 43.55 41.94 40.31 38.60 34.57 41.88 32.51 42.15 45.34 46.75 48.99 51.23 52.76 54.20 56.09
50.50 50.87 51.15 50.33 53.24 51.15 51.76 54.63 53.72 51.68 31.73 41.52 43.55 50.81 48.68 44.86 45.79 46.45 50.88 47.48 42.07 42.15 42.70 40.47 42.00 41.86 41.09 42.35 44.07 40.59 44.25 41.78 40.54 38.94 37.70 37.91 34.32 39.63 44.89 44.16 47.17 50.55 52.62 53.97 56.39
50.16 50.37 50.13 52.66 54.68 52.65 53.98 54.06 51.89 40.13 30.57 38.52 43.32 42.49 42.50 44.41 44.36 47.01 46.96 49.39 47.97 43.22 44.10 42.90 47.34 44.99 43.98 45.50 45.54 45.86 41.80 41.16 41.55 38.03 30.85 36.79 35.07 36.69 41.47 44.31 47.51 50.48 51.84 53.91 55.14
49.53 49.66 51.22 53.79 48.99 53.18 53.82 50.51 39.65 33.65 40.77 37.67 38.70 41.71 40.89 40.95 42.37 43.22 42.37 41.99 39.40 34.80 36.41 40.89 42.17 45.51 45.95 42.74 44.83 42.98 38.62 31.66 30.32 30.02 29.70 37.02 34.15 38.22 44.54 46.77 48.14 49.67 51.24 53.54 55.67
48.51 48.44 50.12 52.69 53.27 53.23 52.31 44.25 32.69 36.96 37.23 42.19 40.65 40.16 38.32 40.35 40.95 41.42 40.96 39.53 41.97 39.59 37.39 33.86 33.85 41.47 44.73 41.47 39.25 40.16 38.69 31.92 24.84 27.09 30.98 37.82 32.46 38.35 44.96 47.62 49.39 50.33 51.79 54.09 55.27
47.93 54.23 54.53 51.99 52.77 53.06 47.13 37.36 36.78 37.80 39.51 38.18 38.70 36.47 36.86 39.00 39.88 39.42 40.31 39.17 40.66 42.01 34.65 33.83 33.53 42.39 43.32 44.00 42.88 39.37 36.85 41.72 33.27 35.90 30.83 33.98 38.10 43.28 45.62 45.72 47.36 48.90 51.26 53.17 54.62
49.22 50.30 50.65 52.29 52.71 51.14 43.18 36.17 37.98 40.67 40.09 39.34 33.38 36.79 33.52 36.98 36.96 36.80 38.39 41.22 38.78 42.31 43.73 38.06 31.91 40.33 41.46 43.23 43.80 41.39 43.73 34.87 34.78 26.07 25.29 32.43 34.60 35.93 40.71 44.07 46.16 47.66 49.25 52.19 54.01
49.52 46.29 50.17 52.21 51.82 45.46 38.21 36.53 37.43 40.51 41.40 37.42 36.20 35.18 36.02 35.23 36.83 35.60 36.72 41.12 42.07 40.61 41.85 39.90 35.91 36.29 40.84 39.30 38.55 39.70 37.83 36.85 37.62 35.72 29.11 28.15 33.56 41.96 43.51 46.10 46.48 47.86 49.67 51.57 53.27
47.59 43.07 50.18 51.83 42.56 42.52 37.56 36.15 37.96 39.24 42.08 39.37 39.53 38.86 36.10 36.68 35.31 34.65 35.88 38.29 43.48 41.91 37.47 41.32 37.06 32.98 35.84 42.33 43.58 41.62 39.14 39.17 32.84 31.99 35.48 34.03 33.97 47.09 47.05 47.87 48.17 48.49 49.66 51.12 52.86
43.54 44.35 50.10 49.07 36.48 37.03 39.24 37.28 38.26 37.95 38.49 37.41 37.01 39.55 40.76 35.79 32.10 36.63 38.71 41.79 42.10 40.10 37.94 39.35 35.25 31.30 34.05 39.13 41.01 37.15 39.36 38.98 39.07 37.32 31.98 30.68 33.38 46.19 47.74 47.35 49.78 50.05 50.76 51.32 52.41
43.22 40.25 44.33 45.90 43.28 37.93 36.59 36.22 36.42 40.38 38.26 39.25 39.01 40.34 38.30 35.27 37.37 35.23 36.16 39.24 40.83 40.07 43.05 41.46 34.22 31.90 29.87 33.66 36.96 34.25 35.92 37.05 35.85 34.14 34.25 34.56 36.85 43.27 44.61 45.53 48.58 49.56 51.42 52.25 53.76
44.09 40.91 39.74 37.69 39.54 38.72 39.07 37.02 36.06 35.50 38.68 40.52 38.49 38.36 36.14 31.89 33.96 34.43 37.74 36.68 38.44 40.72 39.82 38.69 33.88 36.33 36.19 37.57 37.26 35.76 35.53 36.28 34.68 36.04 33.00 35.74 37.64 41.33 43.84 46.12 48.75 50.15 50.51 51.65 53.29
41.19 39.70 42.04 39.44 39.74 38.85 37.33 37.97 36.12 36.84 36.43 37.75 37.23 39.37 38.03 33.43 34.13 31.83 35.57 35.42 35.02 38.97 37.32 39.10 34.61 37.25 34.61 37.81 37.70 35.09 36.32 36.57 36.76 36.97 37.17 37.04 37.82 43.72 46.76 47.93 47.59 48.50 49.38 49.77 52.43
45.95 44.91 38.69 39.00 39.05 38.21 38.03 36.85 36.31 38.80 40.11 40.78 38.54 35.21 34.57 37.59 40.09 40.39 41.13 40.48 38.30 35.31 34.28 35.39 35.29 33.88 30.28 37.53 36.82 32.53 33.66 34.02 35.55 36.03 36.43 33.28 38.33 42.06 45.19 46.94 48.25 49.85 51.11 50.98 52.01
MSLP
1021.28 1020.85 1020.47 1020.12 1019.78 1019.40 1018.97 1018.48 1017.93 1017.59 1017.32 1017.04 1016.81 1016.56 1016.35 1016.02 1015.56 1014.42 1013.14 1013.36 1013.24 1013.70 1013.41 1012.07 1011.62 1011.22 1010.86 1009.51 1008.90 1008.63 1005.92 1002.94 1001.95 1001.30 1001.17 1001.97 1001.67 1001.84 1002.02 1001.86 1001.55 1001.24 1001.09 1000.82 1001.86
1021.24 1020.76 1020.32 1019.91 1019.53 1019.14 1018.77 1018.36 1017.90 1017.44 1017.06 1016.66 1016.41 1016.24 1016.07 1015.85 1014.62 1013.23 1013.32 1013.52 1013.62 1013.62 1012.22 1011.25 1010.66 1010.62 1009.64 1009.10 1008.45 1007.53 1005.34 1003.03 1002.52 1001.85 1001.61 1001.80 1002.19 1002.05 1001.99 1001.69 1001.32 1001.23 1001.19 1001.42 1002.08
1021.19 1020.58 1020.14 1019.74 1019.30 1018.84 1018.39 1018.00 1017.57 1017.14 1016.74 1016.36 1016.17 1016.03 1015.87 1015.59 1013.52 1012.19 1013.20 1013.42 1013.24 1013.03 1012.22 1011.64 1010.76 1010.12 1009.09 1008.60 1007.64 1006.76 1004.56 1003.83 1003.08 1002.90 1002.69 1002.68 1002.31 1002.73 1001.89 1000.96 1000.66 1000.55 1000.64 1001.11 1001.68
1021.29 1020.75 1020.15 1019.64 1019.14 1018.61 1018.08 1017.57 1017.09 1016.71 1016.46 1016.13 1015.81 1015.70 1015.55 1014.52 1012.37 1012.18 1012.92 1013.08 1013.15 1012.78 1012.00 1011.26 1010.46 1009.44 1008.70 1007.72 1007.60 1006.68 1005.76 1005.23 1004.54 1004.04 1003.61 1003.45 1003.14 1002.50 1002.02 1001.42 1000.91 1000.98 1000.59 1000.96 1001.28
1021.37 1020.68 1020.14 1019.62 1019.13 1018.56 1018.00 1017.45 1016.95 1016.49 1016.22 1015.99 1015.72 1015.54 1015.12 1012.71 1011.81 1012.24 1012.78 1012.74 1012.37 1011.95 1011.35 1010.81 1010.13 1009.25 1008.11 1007.36 1007.30 1006.46 1006.01 1005.68 1005.32 1005.22 1004.99 1004.41 1003.18 1002.77 1001.86 1002.08 1001.85 1001.32 1000.96 1001.23 1001.26
1021.61 1020.90 1020.12 1019.44 1018.87 1018.41 1017.86 1017.29 1016.80 1016.33 1015.89 1015.82 1015.67 1015.51 1013.82 1011.62 1011.70 1011.77 1011.90 1011.89 1011.55 1011.26 1010.73 1010.55 1009.81 1009.55 1008.83 1007.92 1007.17 1006.34 1005.76 1005.45 1005.33 1004.94 1004.91 1004.54 1003.52 1003.23 1000.87 1002.34 1002.14 1001.82 1001.09 1000.87 1000.93
1021.49 1020.91 1020.28 1019.54 1018.73 1017.99 1017.39 1017.01 1016.55 1016.01 1015.63 1015.59 1015.63 1014.90 1013.14 1011.36 1011.47 1011.44 1011.40 1011.08 1011.22 1011.01 1010.39 1010.10 1010.15 1009.89 1008.80 1008.06 1007.55 1007.08 1006.42 1005.67 1004.84 1004.53 1004.16 1004.45 1002.68 1001.30 1001.37 1001.61 1001.16 1001.17 1001.05 1000.64 1000.37
1021.23 1020.52 1019.90 1019.28 1018.50 1017.75 1017.17 1016.72 1016.28 1015.65 1015.43 1015.49 1015.53 1014.47 1011.62 1011.05 1011.12 1010.85 1010.74 1010.35 1011.00 1010.96 1010.72 1010.45 1010.23 1009.70 1008.94 1008.26 1007.60 1006.84 1005.80 1004.15 1003.34 1003.13 1003.07 1003.79 999.65 1000.00 1000.44 1000.36 1000.14 1000.56 1000.38 999.90 999.56
1021.14 1020.34 1019.57 1018.88 1018.14 1017.42 1016.76 1016.25 1015.80 1015.51 1015.46 1015.50 1014.94 1013.64 1010.78 1010.99 1010.50 1010.59 1010.66 1010.33 1010.16 1010.15 1010.46 1010.50 1010.00 1009.12 1008.31 1007.98 1006.37 1004.98 1004.05 1003.14 1002.76 1002.48 1002.74 1002.45 999.72 1000.23 1000.02 999.14 998.85 998.85 999.34 998.98 998.88
1020.98 1020.16 1019.29 1018.49 1017.78 1017.07 1016.39 1015.70 1015.46 1015.43 1015.12 1014.67 1014.34 1013.50 1010.87 1010.44 1010.58 1010.58 1010.49 1010.67 1010.16 1009.66 1009.50 1009.77 1009.31 1008.29 1007.49 1006.88 1004.76 1003.43 1003.08 1002.59 1002.31 1002.84 1002.63 1001.84 1000.03 1000.26 999.69 999.03 998.51 998.46 998.25 997.99 997.80
1020.91 1019.99 1019.10 1018.20 1017.40 1016.76 1015.68 1014.76 1014.62 1013.84 1013.52 1012.88 1012.22 1011.58 1010.90 1010.72 1010.40 1010.06 1010.01 1010.07 1009.63 1009.43 1008.64 1008.22 1007.88 1006.47 1006.03 1005.64 1005.17 1004.84 1004.21 1003.18 1002.78 1003.02 1002.62 1001.49 1000.46 999.96 999.91 999.42 999.26 998.67 998.17 997.55 997.09
1020.66 1019.71 1018.77 1017.85 1017.04 1016.40 1015.79 1014.30 1014.90 1014.91 1013.05 1011.84 1011.50 1011.51 1011.29 1011.17 1010.36 1009.25 1009.82 1009.69 1009.17 1008.62 1008.19 1007.66 1006.40 1006.05 1005.78 1005.49 1005.18 1004.58 1004.06 1002.90 1003.05 1003.03 1003.06 1002.00 1000.54 1000.25 999.92 999.46 999.10 998.69 997.98 997.37 996.93
1020.36 1019.46 1018.46 1017.44 1016.64 1016.03 1014.99 1015.18 1015.12 1015.00 1013.14 1011.18 1011.03 1010.58 1010.26 1010.70 1009.79 1009.25 1009.60 1009.13 1009.03 1008.43 1007.70 1006.74 1005.72 1005.68 1005.78 1005.36 1004.89 1004.14 1003.68 1003.22 1003.07 1002.86 1002.72 1002.52 1000.61 999.97 999.42 998.80 998.68 998.19 997.77 997.31 996.62
1020.16 1019.10 1018.23 1017.07 1016.69 1015.58 1014.82 1015.24 1014.92 1014.92 1012.29 1010.44 1010.18 1010.11 1010.19 1009.88 1008.68 1009.27 1009.24 1009.43 1008.93 1008.09 1007.66 1006.74 1005.92 1005.66 1005.46 1004.69 1004.44 1003.31 1003.50 1003.43 1003.22 1003.04 1001.80 1001.57 999.38 998.70 998.21 997.60 997.19 996.76 996.56 995.92 996.09
1020.16 1019.09 1018.16 1017.29 1016.10 1014.92 1015.44 1015.05 1014.76 1014.46 1011.61 1010.55 1009.86 1010.12 1009.80 1009.55 1009.21 1008.56 1009.14 1009.03 1008.42 1007.89 1007.92 1005.90 1005.60 1005.41 1004.83 1004.14 1004.12 1003.54 1003.54 1003.53 1003.44 1002.74 1002.12 1000.98 999.40 997.79 996.99 995.54 995.10 994.99 994.92 995.06 995.18
1019.99 1018.95 1017.97 1016.62 1015.93 1015.47 1015.30 1015.00 1014.60 1012.83 1010.58 1010.02 1010.09 1009.82 1009.44 1009.10 1008.93 1008.84 1008.68 1008.72 1008.64 1008.21 1007.58 1006.46 1006.03 1005.60 1004.90 1004.43 1004.13 1003.90 1004.03 1003.70 1003.30 1002.69 1001.27 1000.22 999.09 996.86 995.92 994.87 994.23 994.57 994.50 994.24 994.13
1019.66 1018.65 1017.83 1016.83 1015.97 1015.54 1015.22 1014.11 1012.65 1011.34 1010.78 1010.34 1010.38 1010.20 1009.94 1009.23 1009.05 1009.04 1008.82 1008.30 1008.36 1008.26 1006.83 1006.12 1004.58 1004.54 1004.97 1004.30 1003.66 1004.08 1003.88 1003.37 1002.08 1001.34 1000.05 999.14 998.83 996.86 995.56 994.30 993.89 993.78 993.68 993.47 993.46
1019.33 1018.48 1017.79 1016.86 1016.08 1015.68 1014.74 1013.02 1012.08 1011.11 1011.27 1011.56 1011.36 1010.85 1010.13 1010.10 1009.70 1009.50 1009.03 1008.42 1008.63 1009.06 1008.36 1006.65 1004.46 1004.40 1004.64 1004.49 1004.08 1003.86 1003.95 1003.70 1001.95 1000.84 999.72 998.56 997.14 995.70 995.61 994.78 994.34 993.31 993.48 992.73 992.70
1018.94 1017.24 1016.51 1016.28 1016.10 1015.54 1014.02 1012.70 1011.98 1012.80 1013.43 1012.93 1012.16 1010.86 1010.32 1010.59 1010.71 1010.23 1009.14 1008.92 1008.99 1009.45 1008.96 1007.62 1005.80 1004.98 1004.67 1004.47 1004.46 1003.38 1003.05 1003.01 1003.25 1002.70 1001.22 999.22 997.19 995.89 994.89 994.38 994.21 993.79 993.42 992.68 992.69
1018.92 1017.24 1016.24 1016.35 1016.09 1015.02 1013.82 1013.88 1013.88 1014.58 1014.79 1014.14 1013.19 1012.38 1011.80 1011.46 1011.44 1011.00 1009.78 1009.06 1009.40 1009.62 1009.75 1008.80 1007.30 1005.22 1004.44 1004.60 1003.88 1003.56 1003.12 1003.86 1004.38 1002.48 1000.28 998.17 996.54 994.59 994.18 993.41 993.52 993.33 993.05 992.68 992.70
1018.68 1016.50 1016.51 1016.22 1015.73 1014.64 1014.87 1015.24 1015.54 1015.84 1015.72 1015.16 1014.10 1013.67 1013.33 1013.03 1012.52 1011.98 1010.48 1009.73 1009.68 1009.85 1010.26 1009.82 1009.19 1006.16 1005.02 1003.67 1002.77 1002.67 1003.16 1004.60 1004.38 1002.85 1000.73 998.53 996.35 996.40 993.83 993.40 992.58 992.66 992.48 992.15 992.24
1018.80 1016.21 1016.88 1016.00 1014.75 1015.32 1015.66 1016.98 1017.46 1016.17 1015.94 1015.48 1014.89 1014.09 1013.81 1013.88 1013.34 1012.37 1010.85 1010.47 1010.67 1011.08 1010.72 1009.87 1009.44 1007.02 1004.88 1003.48 1003.13 1002.99 1002.86 1003.13 1003.43 1002.25 1001.26 999.51 997.02 994.63 994.10 993.76 993.14 992.80 992.47 992.17 992.09
1019.10 1017.65 1017.21 1016.28 1015.98 1016.34 1016.76 1016.87 1017.00 1016.56 1016.21 1015.84 1015.38 1014.75 1014.58 1014.66 1014.26 1012.48 1011.28 1010.99 1011.54 1011.63 1011.40 1011.23 1009.86 1007.21 1004.41 1003.28 1003.33 1003.29 1003.22 1003.48 1003.17 1003.12 1001.48 1000.09 997.60 996.19 994.87 994.33 994.34 993.80 993.08 993.12 992.96
1019.66 1017.57 1016.90 1017.16 1018.04 1017.80 1017.30 1016.77 1016.49 1016.54 1016.32 1016.17 1015.51 1015.16 1014.65 1014.64 1014.24 1012.80 1011.68 1011.59 1011.88 1011.95 1011.87 1011.73 1009.63 1008.30 1006.02 1004.09 1004.00 1004.30 1004.28 1004.28 1004.28 1002.96 1000.86 998.64 997.45 995.87 995.70 995.37 994.58 994.82 994.52 993.80 993.71
1020.53 1019.78 1020.42 1018.06 1017.42 1018.18 1017.68 1017.20 1016.61 1016.45 1016.66 1016.14 1015.31 1015.15 1015.19 1014.69 1013.84 1012.45 1011.68 1012.08 1011.50 1011.14 1011.19 1010.77 1009.07 1007.60 1006.15 1004.98 1004.12 1003.60 1003.84 1004.23 1004.10 1003.26 1001.91 999.71 997.64 997.04 996.01 995.62 994.88 995.12 995.20 994.82 993.96
1021.60 1021.65 1020.78 1019.70 1019.00 1018.16 1017.61 1016.72 1016.92 1016.95 1017.06 1015.70 1015.62 1015.25 1015.30 1014.96 1014.38 1012.42 1012.34 1012.03 1011.83 1010.96 1011.10 1010.50 1008.77 1007.18 1004.95 1003.59 1002.83 1002.75 1003.47 1004.02 1003.60 1003.14 1002.26 1000.50 997.62 997.94 997.58 996.45 995.70 995.35 995.20 994.93 994.46
1022.92 1023.03 1022.86 1020.11 1018.74 1017.98 1017.35 1017.43 1017.18 1017.23 1016.26 1015.97 1015.97 1015.98 1015.04 1014.06 1013.22 1012.12 1011.44 1011.04 1011.28 1011.41 1011.17 1010.56 1009.03 1007.36 1004.18 1002.75 1002.58 1002.96 1004.43 1005.04 1004.40 1003.89 1002.96 1001.41 999.74 999.30 997.76 996.16 995.18 994.95 994.66 994.43 994.43
Wind_Speed
21 20 19 18 17 16 15 15 16 15 14 13 12 11 10 12 15 9 3 8 2 1 10 3 5 4 9 11 16 12 15 20 26 26 19 5 13 14 12 14 10 13 19 3 1
22 21 21 20 18 17 15 14 14 15 14 14 13 11 10 9 9 4 8 2 6 7 7 4 5 8 9 14 11 16 17 28 20 19 19 19 18 18 12 13 14 15 14 7 8
24 23 23 22 21 19 18 17 15 15 15 14 11 9 7 10 7 6 9 6 5 7 8 8 3 8 13 11 19 18 27 21 19 16 16 21 22 17 18 21 18 16 16 13 11
24 24 23 23 23 22 21 20 19 17 14 12 11 8 6 7 3 6 11 4 4 11 8 5 8 11 10 14 15 25 23 21 24 24 18 21 19 22 23 24 17 14 15 7 12
24 25 24 23 23 22 21 20 19 18 14 10 9 7 8 6 6 7 5 8 9 4 6 7 8 10 15 10 14 22 22 23 19 15 20 24 26 23 27 21 21 23 19 14 15
22 24 25 25 24 23 21 19 18 18 13 6 5 8 7 4 5 2 4 6 7 7 5 6 5 8 13 14 16 14 16 15 17 20 21 26 27 23 32 23 23 22 21 22 20
21 22 23 24 24 24 22 18 18 16 5 5 5 6 7 5 4 6 5 4 3 8 9 6 7 9 4 11 11 15 19 20 23 23 24 21 27 37 26 21 21 21 26 27 25
23 23 24 24 24 24 22 19 18 10 3 6 5 6 8 3 7 8 1 2 2 6 9 10 8 13 15 11 14 19 19 19 17 23 21 24 36 31 26 28 27 25 24 24 25
23 24 25 25 24 22 22 21 11 4 6 7 7 6 6 3 7 5 4 7 10 4 5 7 7 13 13 14 16 16 17 21 19 14 14 22 32 24 27 25 19 20 24 25 24
25 24 25 26 23 21 20 16 8 9 7 5 3 7 6 2 11 6 2 5 9 9 12 10 9 14 14 14 17 17 18 19 19 15 22 22 27 21 21 7 14 19 18 19 23
26 25 25 24 23 18 14 6 4 8 8 10 14 12 12 6 8 5 5 9 4 10 14 14 16 18 20 20 22 22 23 24 21 18 21 25 24 21 17 18 20 18 18 18 18
28 27 26 25 20 15 8 6 6 8 11 13 11 12 13 5 10 15 3 9 10 17 19 15 22 24 21 20 24 25 24 27 21 21 19 26 30 26 21 22 20 19 18 18 17
27 27 27 25 16 6 4 7 6 8 8 3 1 4 5 8 10 12 7 13 13 18 17 18 20 20 18 22 21 23 22 22 23 21 20 21 30 29 27 24 22 24 23 22 20
28 29 27 25 6 3 1 9 10 6 7 6 4 4 5 9 11 8 4 10 13 20 14 16 15 10 15 18 18 19 15 20 20 19 16 19 22 27 27 29 29 25 24 25 21
28 29 25 11 6 3 9 11 4 6 7 5 3 4 7 13 13 6 8 8 17 16 15 20 16 16 17 16 13 16 16 16 18 22 23 26 20 19 24 28 28 22 24 26 21
29 29 22 4 4 6 9 8 6 7 4 2 1 7 13 17 5 8 11 10 12 15 15 20 18 16 15 12 13 14 13 17 18 17 18 24 24 21 21 23 24 20 22 22 22
31 26 10 5 8 12 7 5 7 6 4 2 7 14 18 13 14 10 17 10 7 8 7 15 17 18 10 15 7 9 10 8 11 13 17 18 15 17 19 20 21 22 16 19 19
32 21 4 3 10 7 5 7 5 4 8 13 13 21 12 8 9 13 12 10 3 6 10 7 3 8 5 4 7 11 8 9 13 13 13 11 16 18 21 23 19 17 24 17 16
29 2 3 10 8 6 8 5 7 10 9 12 19 10 6 6 10 9 14 10 4 4 6 10 7 5 15 17 15 12 17 17 20 24 18 16 20 13 19 21 22 20 17 17 16
8 4 6 14 7 6 5 6 6 7 13 11 9 7 12 14 11 11 11 3 5 3 6 5 13 13 6 6 16 18 9 7 5 7 10 11 15 11 6 16 22 22 23 21 15
6 5 8 13 6 4 3 7 10 10 9 8 10 14 13 13 10 11 8 12 6 4 7 12 7 10 17 17 15 8 10 6 10 10 10 12 5 8 4 12 9 21 24 22 20
6 4 9 11 3 3 7 8 6 8 9 9 9 11 10 9 8 10 11 5 11 13 9 12 6 14 21 22 18 17 18 15 8 12 10 10 9 11 10 6 6 5 13 17 17
8 4 6 10 6 7 8 5 5 10 10 6 8 7 11 10 8 11 15 6 11 12 4 1 6 9 9 4 3 6 13 13 17 8 17 16 8 12 6 4 8 9 3 8 9
6 5 2 2 3 8 9 5 9 8 9 5 13 13 11 10 13 12 19 9 8 14 22 18 7 14 17 17 13 17 16 14 13 9 16 20 23 18 10 9 6 7 7 6 9
4 5 4 8 5 10 8 5 11 10 5 12 6 8 12 7 18 14 13 22 16 15 4 4 7 15 20 25 26 25 22 19 19 19 22 19 25 17 14 12 15 10 10 9 9
6 6 3 7 8 9 1 7 11 11 7 7 10 17 18 15 18 27 21 13 6 6 3 4 6 15 22 25 23 18 15 17 16 19 23 26 35 17 23 23 22 20 18 16 12
3 3 3 4 7 6 5 8 9 15 10 12 14 15 18 19 19 25 23 22 16 8 5 5 4 6 10 12 19 10 5 5 7 7 13 12 19 19 20 18 14 15 13 16 16
Wind_Direction
358 357 355 352 348 345 342 337 334 329 323 315 313 313 314 311 295 251 110 56 54 347 284 228 205 191 210 230 222 241 242 243 245 248 244 236 281 245 251 265 222 219 248 288 332
355 354 353 350 346 343 339 335 330 324 318 312 312 314 311 309 288 133 74 327 277 284 283 316 209 192 203 222 213 220 231 248 262 263 260 249 245 249 236 227 236 234 241 215 185
352 351 351 348 345 342 339 337 334 327 319 311 308 303 300 290 243 57 148 223 278 244 288 292 248 216 228 222 217 229 248 255 252 275 281 267 261 239 257 244 241 228 218 207 214
349 348 348 346 342 338 337 336 334 331 325 313 305 305 294 239 4 54 167 184 274 283 250 243 241 231 241 225 224 247 256 267 271 278 272 254 269 259 253 253 259 234 256 246 218
345 344 344 344 339 334 332 331 329 326 320 305 296 296 255 221 43 107 168 231 270 236 226 238 265 267 257 254 251 247 255 261 273 266 269 267 265 266 260 253 257 266 249 229 246
343 341 340 338 335 331 327 326 325 322 309 281 272 282 267 274 8 333 297 279 247 245 240 240 284 304 288 275 259 276 282 273 269 263 265 264 263 266 252 251 255 256 250 247 234
339 338 336 334 331 328 325 326 323 316 283 229 213 289 261 10 341 325 303 312 276 264 268 257 279 258 322 268 280 270 274 266 257 251 252 258 260 249 252 259 248 242 242 250 249
337 335 334 333 330 325 323 323 318 299 188 174 208 276 266 95 323 269 357 260 205 262 270 292 264 263 270 276 266 259 260 270 266 241 243 231 256 251 248 239 238 237 243 246 242
337 333 332 333 331 325 321 318 307 160 166 169 239 276 254 176 337 353 319 325 322 220 242 270 253 252 258 255 264 237 261 276 285 272 264 251 252 258 258 258 246 235 236 237 240
337 334 332 332 331 324 318 304 159 168 201 236 258 242 209 338 347 314 263 293 310 283 270 225 239 249 238 248 258 294 291 280 275 264 268 253 262 240 256 239 269 232 237 234 236
338 335 333 331 328 322 312 206 253 182 214 287 297 287 293 336 296 292 266 293 264 261 274 277 242 245 251 256 260 273 276 274 275 283 270 264 261 257 257 264 256 256 245 245 235
337 336 335 331 327 316 274 28 36 336 296 287 280 260 268 282 291 303 169 281 281 287 293 261 247 258 266 273 270 264 260 262 273 272 269 275 262 255 242 245 251 255 254 247 241
336 336 336 331 324 275 20 33 320 318 265 330 265 245 175 242 296 306 248 298 278 287 281 271 275 306 273 262 262 249 250 263 273 283 269 264 270 256 249 245 251 252 249 250 246
335 336 337 327 286 1 88 341 311 257 271 117 163 131 199 305 286 307 307 302 280 283 289 279 286 266 266 258 252 260 245 262 268 270 269 252 259 255 238 240 243 239 241 240 233
334 334 335 338 328 329 338 324 329 231 283 89 112 51 305 307 314 134 337 298 281 288 289 267 279 280 277 270 267 276 275 265 277 274 272 263 256 261 253 233 237 234 230 234 230
334 332 326 220 238 359 318 309 242 231 249 141 282 321 313 324 318 285 311 298 268 284 268 268 272 267 275 286 276 269 261 256 264 265 262 263 259 255 250 243 237 227 235 237 227
333 330 312 310 338 324 309 246 261 264 81 49 333 322 318 312 314 333 320 308 309 309 292 296 260 222 242 264 219 233 247 261 250 233 255 263 248 253 261 239 236 221 228 232 223
329 320 118 328 328 314 261 267 272 51 314 342 325 311 299 344 324 325 315 324 285 294 296 311 269 194 189 285 306 276 263 254 280 278 282 299 249 243 235 265 262 239 228 211 195
314 313 274 355 332 288 282 293 345 1 3 321 317 296 296 316 326 310 314 290 300 216 300 307 256 301 281 287 266 260 242 255 269 266 271 267 277 263 251 237 234 239 229 198 183
323 301 30 344 324 264 296 303 315 359 337 311 304 317 319 322 319 338 301 359 306 265 293 311 289 281 306 284 258 243 271 261 220 267 260 248 266 285 312 229 226 221 223 215 208
285 280 24 343 271 4 34 325 318 341 336 324 310 303 311 319 315 305 272 307 311 296 290 284 250 283 295 274 268 210 219 237 276 256 272 292 304 304 52 327 241 218 215 217 206
308 305 11 327 339 3 8 340 318 303 300 300 283 277 272 302 280 284 263 280 298 315 281 294 296 284 283 280 269 261 271 239 243 256 245 294 291 309 269 323 204 304 221 222 225
326 305 40 320 20 7 344 309 283 303 318 320 294 272 313 298 299 263 279 320 307 290 259 284 242 290 294 174 191 236 240 250 263 235 256 274 258 305 68 135 60 338 168 210 228
305 319 96 87 104 340 351 332 334 327 315 281 288 295 300 300 272 274 284 309 318 287 282 287 231 235 262 273 280 276 256 259 267 267 261 244 255 245 237 284 283 335 323 271 186
7 49 7 324 360 337 314 297 325 349 313 300 285 279 309 281 301 267 309 306 296 294 269 253 262 254 254 258 268 269 277 271 258 254 259 272 270 270 280 277 268 297 294 285 269
336 344 333 290 298 309 146 341 322 334 300 301 282 306 311 290 280 289 298 296 267 305 308 256 278 292 284 275 267 277 278 289 272 256 262 262 266 271 268 265 264 267 268 255 240
68 128 337 288 313 291 17 332 309 318 290 261 292 301 296 291 311 293 282 272 251 257 275 273 262 294 281 311 310 273 70 311 292 278 269 270 292 316 271 264 243 227 240 235 230